Location: Long Island Community Building
(39.9491°N, 99.5338°W)
Time: 04:22:22
(UTC+00:00)

BREEZE-M DEB (TANK) - Pass Details

Date: 06 December 2019
Orbit: 284 x 20934 km, 49.4° (Epoch: 18 January)

Event Time Altitude Azimuth Distance (km) Brightness Sun altitude
Exits shadow 13:02:34 11° 314° (NW) 1,087 3.3 -8.2°
Maximum altitude 13:04:25 48° 32° (NNE) 448 2.0 -7.9°
Drops below altitude 10° 13:07:40 10° 110° (ESE) 1,890 6.9 -7.3°
Sets 13:11:24 0° 116° (ESE) 3,837 9.4 -6.6°
